When you browse on this site, cookies collect data to enhance your experience and personalize the content and advertising you see.
Visit our Privacy Policy to learn more. By continuing to use the site, you agree to this use of cookies and data.
  • In Czech Republic
  • List of Countries
  • For 7 days
  • Water Temperature
  • Weather Map
  • Weather Widgets
  • user-avatar
    Login

    Hourly Weather Kiel

    Today, 26 January, Sunday

    Time Temperature Precipitation Wind Pressure Humidity
    00:00 0°C° 0 mm 4 mps 762 mmHg 85%
    01:00 0°C° 0 mm 4 mps 762 mmHg 84%
    02:00 -1°C° 0 mm 4 mps 762 mmHg 84%
    03:00 -1°C° 0 mm 4 mps 761 mmHg 84%
    04:00 -2°C° 0 mm 4 mps 761 mmHg 85%
    05:00 -2°C° 0 mm 4 mps 761 mmHg 85%
    06:00 -3°C° 0 mm 4 mps 761 mmHg 86%
    07:00 -3°C° 0 mm 4 mps 761 mmHg 86%
    08:00 -2°C° 0 mm 4 mps 761 mmHg 84%
    09:00 -1°C° 0 mm 3 mps 761 mmHg 82%
    10:00 0°C° 0 mm 3 mps 761 mmHg 80%
    11:00 +1°C° 0 mm 3 mps 761 mmHg 77%
    12:00 +3°C° 0 mm 4 mps 760 mmHg 74%
    13:00 +4°C° 0 mm 4 mps 760 mmHg 70%
    14:00 +4°C° 0 mm 4 mps 759 mmHg 73%
    15:00 +3°C° 0 mm 4 mps 759 mmHg 75%
    16:00 +3°C° 0 mm 4 mps 759 mmHg 78%
    17:00 +1°C° 0 mm 4 mps 759 mmHg 81%
    18:00 +1°C° 0 mm 5 mps 758 mmHg 83%
    19:00 0°C° 0 mm 5 mps 758 mmHg 86%
    20:00 0°C° 0 mm 5 mps 758 mmHg 88%
    21:00 0°C° 0 mm 5 mps 758 mmHg 90%
    22:00 0°C° 0 mm 5 mps 758 mmHg 92%
    23:00 0°C° 0 mm 5 mps 757 mmHg 93%

    Tomorrow, 27 January, Monday

    Time Temperature Precipitation Wind Pressure Humidity
    00:00 0°C° 0 mm 5 mps 757 mmHg 93%
    01:00 0°C° 0 mm 5 mps 756 mmHg 94%
    02:00 0°C° 0 mm 5 mps 756 mmHg 94%
    03:00 +1°C° 0 mm 5 mps 756 mmHg 94%
    04:00 +1°C° 0 mm 6 mps 755 mmHg 94%
    05:00 +1°C° 0 mm 6 mps 754 mmHg 93%
    06:00 +1°C° 0 mm 6 mps 754 mmHg 93%
    07:00 +2°C° 0 mm 6 mps 753 mmHg 92%
    08:00 +2°C° 0.2 mm 6 mps 753 mmHg 92%
    09:00 +2°C° 0.2 mm 7 mps 753 mmHg 91%
    10:00 +3°C° 0.2 mm 7 mps 753 mmHg 90%
    11:00 +3°C° 0.3 mm 6 mps 752 mmHg 91%
    12:00 +4°C° 0.3 mm 6 mps 752 mmHg 92%
    13:00 +4°C° 0.3 mm 6 mps 751 mmHg 93%
    14:00 +4°C° 0 mm 6 mps 751 mmHg 92%
    15:00 +6°C° 0 mm 5 mps 751 mmHg 91%
    16:00 +6°C° 0 mm 5 mps 750 mmHg 89%
    17:00 +6°C° 0.1 mm 5 mps 750 mmHg 91%
    18:00 +5°C° 0.1 mm 5 mps 749 mmHg 93%
    19:00 +5°C° 0.1 mm 4 mps 749 mmHg 95%
    20:00 +5°C° 0.5 mm 4 mps 748 mmHg 95%
    21:00 +5°C° 0.5 mm 4 mps 748 mmHg 95%
    22:00 +5°C° 0.5 mm 4 mps 748 mmHg 96%
    23:00 +5°C° 0.1 mm 4 mps 747 mmHg 96%

    Day after tomorrow, 28 January, Tuesday

    Time Temperature Precipitation Wind Pressure Humidity
    00:00 +5°C° 0.1 mm 4 mps 746 mmHg 96%
    01:00 +5°C° 0.1 mm 4 mps 746 mmHg 96%
    02:00 +4°C° 0 mm 4 mps 745 mmHg 96%
    03:00 +4°C° 0 mm 4 mps 744 mmHg 95%
    04:00 +4°C° 0 mm 4 mps 744 mmHg 94%
    05:00 +4°C° 0 mm 4 mps 743 mmHg 95%
    06:00 +3°C° 0 mm 4 mps 742 mmHg 95%
    07:00 +3°C° 0 mm 4 mps 741 mmHg 95%
    08:00 +3°C° 1.6 mm 4 mps 740 mmHg 96%
    09:00 +4°C° 1.6 mm 4 mps 739 mmHg 96%
    10:00 +4°C° 1.6 mm 4 mps 739 mmHg 96%
    11:00 +3°C° 0.8 mm 5 mps 738 mmHg 95%
    12:00 +3°C° 0.8 mm 6 mps 738 mmHg 93%
    13:00 +3°C° 0.8 mm 6 mps 738 mmHg 92%
    14:00 +3°C° 0.1 mm 7 mps 738 mmHg 90%
    15:00 +2°C° 0.1 mm 8 mps 738 mmHg 88%
    16:00 +2°C° 0.1 mm 8 mps 738 mmHg 85%
    17:00 +2°C° 0.1 mm 8 mps 738 mmHg 88%
    18:00 +1°C° 0.1 mm 8 mps 738 mmHg 91%
    19:00 +1°C° 0.1 mm 8 mps 739 mmHg 94%
    20:00 +1°C° 0.1 mm 8 mps 739 mmHg 93%
    21:00 +1°C° 0.1 mm 8 mps 739 mmHg 92%
    22:00 +1°C° 0.1 mm 8 mps 739 mmHg 91%
    23:00 0°C° 0.5 mm 9 mps 740 mmHg 90%

    29 January, Wednesday

    Time Temperature Precipitation Wind Pressure Humidity
    00:00 0°C° 0.5 mm 9 mps 740 mmHg 89%
    01:00 0°C° 0.5 mm 9 mps 740 mmHg 88%
    02:00 0°C° 0.1 mm 9 mps 740 mmHg 87%
    03:00 0°C° 0.1 mm 8 mps 740 mmHg 85%
    04:00 0°C° 0.1 mm 8 mps 740 mmHg 84%
    05:00 0°C° 0.3 mm 7 mps 740 mmHg 84%
    06:00 0°C° 0.3 mm 7 mps 741 mmHg 85%
    07:00 0°C° 0.3 mm 7 mps 741 mmHg 85%
    08:00 +1°C° 0.4 mm 6 mps 742 mmHg 85%
    09:00 +2°C° 0.4 mm 6 mps 742 mmHg 84%
    10:00 +2°C° 0.4 mm 6 mps 743 mmHg 84%
    11:00 +2°C° 0 mm 6 mps 744 mmHg 80%
    12:00 +3°C° 0 mm 7 mps 744 mmHg 76%
    13:00 +4°C° 0 mm 7 mps 745 mmHg 73%
    14:00 +3°C° 0 mm 7 mps 746 mmHg 73%
    15:00 +3°C° 0 mm 7 mps 746 mmHg 74%
    16:00 +3°C° 0 mm 7 mps 747 mmHg 75%
    17:00 +3°C° 0 mm 7 mps 747 mmHg 76%
    18:00 +2°C° 0 mm 7 mps 748 mmHg 78%
    19:00 +2°C° 0 mm 7 mps 749 mmHg 80%
    20:00 +2°C° 0 mm 7 mps 749 mmHg 82%
    21:00 +2°C° 0 mm 7 mps 749 mmHg 83%
    22:00 +2°C° 0 mm 7 mps 750 mmHg 85%
    23:00 +1°C° 0 mm 6 mps 750 mmHg 86%

    30 January, Thursday

    Time Temperature Precipitation Wind Pressure Humidity
    00:00 +1°C° 0 mm 6 mps 750 mmHg 87%
    01:00 +1°C° 0 mm 5 mps 751 mmHg 88%
    02:00 +2°C° 0.2 mm 5 mps 751 mmHg 89%
    03:00 +2°C° 0.2 mm 5 mps 751 mmHg 90%
    04:00 +4°C° 0.2 mm 4 mps 752 mmHg 91%
    05:00 +3°C° 0 mm 4 mps 752 mmHg 91%
    06:00 +2°C° 0 mm 5 mps 753 mmHg 91%
    07:00 +1°C° 0 mm 5 mps 754 mmHg 91%
    08:00 +2°C° 0 mm 5 mps 754 mmHg 90%
    09:00 +2°C° 0 mm 5 mps 755 mmHg 88%
    10:00 +3°C° 0 mm 6 mps 756 mmHg 87%
    11:00 +4°C° 0 mm 6 mps 756 mmHg 84%
    12:00 +4°C° 0 mm 6 mps 756 mmHg 81%
    13:00 +5°C° 0 mm 7 mps 757 mmHg 78%
    14:00 +5°C° 0 mm 7 mps 757 mmHg 79%
    15:00 +4°C° 0 mm 7 mps 757 mmHg 80%
    16:00 +4°C° 0 mm 6 mps 757 mmHg 82%
    17:00 +3°C° 0 mm 6 mps 757 mmHg 83%
    18:00 +3°C° 0 mm 6 mps 757 mmHg 84%
    19:00 +3°C° 0 mm 5 mps 758 mmHg 85%
    20:00 +2°C° 0 mm 5 mps 758 mmHg 87%
    21:00 +2°C° 0 mm 5 mps 758 mmHg 88%
    22:00 +2°C° 0 mm 5 mps 757 mmHg 90%
    23:00 +1°C° 0 mm 5 mps 757 mmHg 90%

    31 January, Friday

    Time Temperature Precipitation Wind Pressure Humidity
    00:00 +1°C° 0 mm 5 mps 757 mmHg 90%
    01:00 +1°C° 0 mm 4 mps 757 mmHg 90%
    02:00 +1°C° 0 mm 4 mps 757 mmHg 91%
    03:00 0°C° 0 mm 4 mps 757 mmHg 91%
    04:00 0°C° 0 mm 4 mps 757 mmHg 91%
    05:00 0°C° 0 mm 4 mps 756 mmHg 91%
    06:00 -1°C° 0 mm 4 mps 756 mmHg 91%
    07:00 -1°C° 0 mm 4 mps 756 mmHg 91%
    08:00 -1°C° 0 mm 4 mps 756 mmHg 87%
    09:00 0°C° 0 mm 5 mps 756 mmHg 84%
    10:00 0°C° 0 mm 5 mps 756 mmHg 80%
    11:00 +1°C° 0 mm 5 mps 756 mmHg 79%
    12:00 +2°C° 0 mm 5 mps 756 mmHg 77%
    13:00 +2°C° 0 mm 5 mps 755 mmHg 75%
    14:00 +2°C° 0 mm 5 mps 755 mmHg 79%
    15:00 +3°C° 0 mm 5 mps 755 mmHg 83%
    16:00 +3°C° 0 mm 5 mps 754 mmHg 87%
    17:00 +3°C° 0 mm 5 mps 754 mmHg 89%
    18:00 +3°C° 0 mm 5 mps 754 mmHg 91%
    19:00 +5°C° 0 mm 5 mps 754 mmHg 93%
    20:00 +4°C° 0.2 mm 6 mps 754 mmHg 94%
    21:00 +5°C° 0.2 mm 6 mps 754 mmHg 95%
    22:00 +5°C° 0.2 mm 6 mps 754 mmHg 97%
    23:00 +7°C° 0.1 mm 6 mps 753 mmHg 96%
    Show more